Date String (YYYY-MM-DD hh:mm:ss) UTC,Instrument flags,absolute air pressure of the measurement (hPa),sample flow rate (lpm),inlet stack bypass flow (lpm),air temperature of the measurement (°C),ambient temperature measured by the external sensor (°C),aerosol sample conditioner tube jacket temperature (°C),OPC LED temperature (°C),internal box temperature (°C),relative humidity of the measurement (%),span deviation,mass concentration of particles derived from Lorenz-Mie calculation of OPC scattering (μg/m³),mass concentration of particles derived from Lorenz-Mie calculation of OPC scattering (μg/m³),mass concentration of particles derived from Lorenz-Mie calculation of OPC scattering (μg/m³)
DateTimeUTC,F1_M11,P_M11,Q1_M11,Q2_M11,T1_M11,T2_M11,T3_M11,T4_M11,T5_M11,U1_M11,ZSPAN_M11,X0_M11,X2_M11,X1_M11
2024-02-08 18:00:00,SystemResetWarning,0816.8,5.00,000.00,018.4,017.5,000.0,026.8,020.0,13.7,0000.0,0001.71,0000.28,0000.16
2024-02-08 18:01:00,SystemResetWarning,0816.8,5.00,000.00,018.4,017.4,000.0,026.8,020.0,13.0,0000.0,0001.36,0000.27,0000.17
2024-02-08 18:02:00,SystemResetWarning,0816.7,5.00,000.00,018.3,017.4,000.0,026.8,020.0,13.3,0000.0,0000.69,0000.30,0000.18
2024-02-08 18:03:00,SystemResetWarning,0816.5,5.00,000.00,018.3,017.4,000.0,026.8,020.0,13.2,0000.0,0000.78,0000.33,0000.19
2024-02-08 18:04:00,SystemResetWarning,0816.7,5.00,000.00,018.3,017.4,000.0,026.9,020.0,13.2,0000.0,0000.72,0000.33,0000.19
2024-02-08 18:05:00,SystemResetWarning,0816.5,5.00,000.00,018.3,017.4,000.0,026.9,020.0,14.1,0000.0,0000.69,0000.32,0000.20
2024-02-08 18:06:00,SystemResetWarning,0816.6,5.00,000.00,018.3,017.4,000.0,026.9,020.0,14.2,0000.0,0001.25,0000.33,0000.21
2024-02-08 18:07:00,SystemResetWarning,0816.7,5.00,000.00,018.3,017.4,000.0,026.9,020.0,14.6,0000.0,0001.26,0000.34,0000.21
2024-02-08 18:08:00,SystemResetWarning,0816.8,5.00,000.00,018.3,017.4,000.0,026.9,020.0,14.6,0000.0,0001.26,0000.34,0000.22
2024-02-08 18:09:00,SystemResetWarning,0816.6,4.99,000.00,018.3,017.4,000.0,026.9,020.0,14.5,0000.0,0001.24,0000.34,0000.22
2024-02-08 18:10:00,SystemResetWarning,0816.8,4.99,000.00,018.3,017.4,000.0,026.9,020.0,13.8,0000.0,0002.03,0000.35,0000.23
2024-02-08 18:11:00,SystemResetWarning,0816.9,5.01,000.00,018.3,017.4,000.0,026.9,020.0,14.4,0000.0,0002.10,0000.34,0000.23
2024-02-08 18:12:00,SystemResetWarning,0816.8,5.00,000.00,018.3,017.4,000.0,026.9,020.0,14.7,0000.0,0002.12,0000.36,0000.24
2024-02-08 18:13:00,SystemResetWarning,0816.8,4.99,000.00,018.3,017.4,000.0,026.9,020.0,14.5,0000.0,0002.05,0000.38,0000.25
2024-02-08 18:14:00,SystemResetWarning,0816.8,4.99,000.00,018.3,017.4,000.0,026.9,020.0,13.9,0000.0,0001.99,0000.36,0000.25
2024-02-08 18:15:00,SystemResetWarning,0816.8,5.01,000.00,018.3,017.4,000.0,026.9,020.0,13.3,0000.0,0002.09,0000.38,0000.27
2024-02-08 18:16:00,SystemResetWarning,0816.9,5.00,000.00,018.3,017.4,000.0,026.9,020.0,13.2,0000.0,0002.10,0000.39,0000.28
2024-02-08 18:17:00,SystemResetWarning,0816.9,4.99,000.00,018.3,017.4,000.0,026.9,020.0,13.0,0000.0,0001.74,0000.40,0000.29
2024-02-08 18:18:00,SystemResetWarning,0817.0,4.99,000.00,018.3,017.5,000.0,026.9,020.0,12.8,0000.0,0001.60,0000.43,0000.31
2024-02-08 18:19:00,SystemResetWarning,0817.1,5.00,000.00,018.3,017.5,000.0,026.9,020.0,13.6,0000.0,0001.63,0000.45,0000.33
2024-02-08 18:20:00,SystemResetWarning,0817.1,5.00,000.00,018.4,017.5,000.0,026.9,020.0,13.7,0000.0,0001.67,0000.48,0000.35
2024-02-08 18:21:00,SystemResetWarning,0817.0,5.01,000.00,018.4,017.5,000.0,026.9,020.0,13.7,0000.0,0000.99,0000.50,0000.38
2024-02-08 18:22:00,SystemResetWarning,0817.0,5.01,000.00,018.4,017.5,000.0,026.9,020.0,13.8,0000.0,0000.90,0000.53,0000.40
2024-02-08 18:23:00,SystemResetWarning,0817.0,5.00,000.00,018.4,017.5,000.0,026.9,020.0,14.2,0000.0,0000.92,0000.55,0000.40
2024-02-08 18:24:00,SystemResetWarning,0817.0,5.00,000.00,018.4,017.6,000.0,026.9,020.0,14.5,0000.0,0000.90,0000.54,0000.41
2024-02-08 18:25:00,SystemResetWarning,0816.9,5.00,000.00,018.4,017.6,000.0,026.9,020.0,13.8,0000.0,0000.91,0000.55,0000.43
2024-02-08 18:26:00,SystemResetWarning,0816.9,5.00,000.00,018.4,017.6,000.0,026.9,020.0,13.9,0000.0,0000.80,0000.55,0000.44
2024-02-08 18:27:00,SystemResetWarning,0816.9,4.99,000.00,018.4,017.6,000.0,026.9,020.0,13.2,0000.0,0001.38,0000.55,0000.45
2024-02-08 18:28:00,SystemResetWarning,0816.9,5.01,000.00,018.4,017.6,000.0,026.9,020.0,13.4,0000.0,0001.79,0000.56,0000.47
2024-02-08 18:29:00,SystemResetWarning,0817.1,5.00,000.00,018.4,017.6,000.0,026.9,020.0,13.4,0000.0,0001.87,0000.56,0000.47
2024-02-08 18:30:00,SystemResetWarning,0817.1,5.00,000.00,018.4,017.7,000.0,026.9,020.0,12.1,0000.0,0001.88,0000.57,0000.48
2024-02-08 18:31:00,SystemResetWarning,0817.1,5.00,000.00,018.4,017.7,000.0,026.9,020.0,12.2,0000.0,0001.93,0000.59,0000.47
2024-02-08 18:32:00,SystemResetWarning,0817.1,5.00,000.00,018.4,017.7,000.0,026.9,020.0,12.2,0000.0,0001.94,0000.59,0000.47
2024-02-08 18:33:00,SystemResetWarning,0817.1,5.01,000.00,018.4,017.7,000.0,026.9,020.0,12.1,0000.0,0001.87,0000.56,0000.46
2024-02-08 18:34:00,SystemResetWarning,0817.1,5.00,000.00,018.4,017.7,000.0,026.9,020.0,12.2,0000.0,0002.62,0000.57,0000.45
2024-02-08 18:35:00,SystemResetWarning,0817.1,5.00,000.00,018.4,017.8,000.0,026.9,020.0,12.0,0000.0,0002.68,0000.56,0000.44
2024-02-08 18:36:00,SystemResetWarning,0817.1,4.99,000.00,018.4,017.8,000.0,026.8,020.0,11.9,0000.0,0002.69,0000.56,0000.42
2024-02-08 18:37:00,SystemResetWarning,0817.1,4.99,000.00,018.4,017.8,000.0,026.8,020.0,11.9,0000.0,0002.68,0000.53,0000.39
2024-02-08 18:38:00,SystemResetWarning,0817.1,5.01,000.00,018.4,017.8,000.0,026.8,020.0,12.1,0000.0,0002.17,0000.51,0000.36
2024-02-08 18:39:00,SystemResetWarning,0817.1,5.01,000.00,018.4,017.8,000.0,026.8,020.0,12.2,0000.0,0001.79,0000.50,0000.34
2024-02-08 18:40:00,SystemResetWarning,0817.1,5.00,000.00,018.4,017.8,000.0,026.8,020.0,12.1,0000.0,0001.83,0000.46,0000.30
2024-02-08 18:41:00,SystemResetWarning,0817.1,4.99,000.00,018.4,017.9,000.0,026.8,020.0,12.9,0000.0,0001.80,0000.43,0000.28
2024-02-08 18:42:00,SystemResetWarning,0817.1,5.00,000.00,018.4,017.9,000.0,026.8,020.0,12.4,0000.0,0002.80,0000.39,0000.25
2024-02-08 18:43:00,SystemResetWarning,0817.1,5.01,000.00,018.4,017.9,000.0,026.7,020.0,11.5,0000.0,0003.35,0000.36,0000.22
2024-02-08 18:44:00,SystemResetWarning,0817.1,5.01,000.00,018.4,017.9,000.0,026.7,020.0,11.8,0000.0,0003.43,0000.36,0000.21
2024-02-08 18:45:00,SystemResetWarning,0817.1,4.99,000.00,018.4,017.9,000.0,026.7,020.0,11.9,0000.0,0002.65,0000.32,0000.20
2024-02-08 18:46:00,SystemResetWarning,0817.1,4.99,000.00,018.5,018.0,000.0,026.7,020.0,12.3,0000.0,0002.55,0000.29,0000.18
2024-02-08 18:47:00,SystemResetWarning,0817.1,5.01,000.00,018.5,018.0,000.0,026.7,020.1,11.6,0000.0,0002.50,0000.26,0000.17
2024-02-08 18:48:00,SystemResetWarning,0817.1,5.01,000.00,018.5,018.0,000.0,026.8,020.1,11.9,0000.0,0002.46,0000.24,0000.16
2024-02-08 18:49:00,SystemResetWarning,0817.1,4.99,000.00,018.5,018.0,000.0,026.8,020.1,12.5,0000.0,0002.46,0000.23,0000.16
2024-02-08 18:50:00,SystemResetWarning,0817.1,4.99,000.00,018.5,018.0,000.0,026.8,020.1,11.8,0000.0,0002.39,0000.23,0000.16
2024-02-08 18:51:00,SystemResetWarning,0817.1,5.01,000.00,018.5,018.1,000.0,026.8,020.1,11.7,0000.0,0002.22,0000.23,0000.16
2024-02-08 18:52:00,SystemResetWarning,0817.1,5.01,000.00,018.5,018.1,000.0,026.8,020.1,11.8,0000.0,0002.21,0000.22,0000.16
2024-02-08 18:53:00,SystemResetWarning,0817.1,4.98,000.00,018.5,018.1,000.0,026.8,020.2,11.7,0000.0,0001.07,0000.22,0000.16
2024-02-08 18:54:00,SystemResetWarning,0817.1,4.99,000.00,018.6,018.1,000.0,026.8,020.2,11.8,0000.0,0000.64,0000.23,0000.16
2024-02-08 18:55:00,SystemResetWarning,0817.1,5.01,000.00,018.6,018.2,000.0,026.8,020.2,11.5,0000.0,0000.70,0000.26,0000.16
2024-02-08 18:56:00,SystemResetWarning,0817.1,5.02,000.00,018.6,018.2,000.0,026.8,020.2,11.6,0000.0,0000.71,0000.26,0000.16
2024-02-08 18:57:00,SystemResetWarning,0817.1,5.00,000.00,018.6,018.2,000.0,026.8,020.2,11.8,0000.0,0000.96,0000.28,0000.16
2024-02-08 18:58:00,SystemResetWarning,0817.1,4.99,000.00,018.6,018.3,000.0,026.8,020.3,12.1,0000.0,0001.53,0000.29,0000.17
2024-02-08 18:59:00,SystemResetWarning,0817.1,5.00,000.00,018.7,018.3,000.0,026.8,020.3,11.8,0000.0,0001.58,0000.31,0000.17
